Regional Weather Roundup
Issued by NWS Grand Forks, ND

Home | Current Version | Previous Version | Text Only | Print | Product List | Glossary Off
Versions: 1 2 3 4 5 6 7 8 9 10 11 12 13 14 15 16 17 18 19 20 21 22 23 24 25 26 27 28 29 30 31 32 33 34 35 36 37 38 39 40 41 42 43 44 45 46 47 48 49 50

000
ASUS43 KFGF 231631
RWRFGF
PRAIRIE TO PINES  WEATHER ROUNDUP
NATIONAL WEATHER SERVICE EASTERN NORTH DAKOTA/GRAND FORKS ND
1100 AM CDT SAT SEP 23 2017

 **SATELLITE DATA USED TO AUGMENT SKY COVER AT AUTOMATED STATIONS**
 *****  WEATHER ACROSS EASTERN NORTH DAKOTA  *****

CITY           SKY/WX    TMP DP  RH WIND       PRES   REMARKS
GRAND FORKS    CLOUDY    56  49  77 N15       30.04R
GRAND FRKS AFB CLOUDY    57  46  67 N12       30.06R
DEVILS LAKE    CLOUDY    50  45  83 N10       30.10R
FARGO          CLOUDY    53  50  89 N14       30.02F
WAHPETON ARPT  CLOUDY    52  48  87 N7        30.04R
$$

 ***** WEATHER ACROSS CENTRAL AND WESTERN NORTH DAKOTA  *****

CITY           SKY/WX    TMP DP  RH WIND       PRES   REMARKS
BISMARCK       CLOUDY    50  47  89 N5        30.12R
MINOT          CLOUDY    51  43  74 NW12      30.12F
JAMESTOWN      CLOUDY    53  45  74 N13       30.07R
MINOT AFB      CLOUDY    48  43  81 N9        30.11S
GARRISON         N/A     47  44  90 N7        30.12R
WILLISTON      CLOUDY    48  42  80 N3        30.16R
DICKINSON      CLOUDY    47  41  80 NE9       30.10S
HETTINGER      CLOUDY    46  41  82 N8        30.14R
$$

 *****  OTHER AIRPORT OBSERVATIONS IN OUR AREA  *****

CITY           SKY/WX    TMP DP  RH WIND       PRES   REMARKS
WALHALLA       FAIR     N/A N/A N/A N12       30.08R
GRAFTON AIRPOR PTSUNNY   54  48  82 N15       30.07S
VALLEY CITY AR CLOUDY    54  50  87 N8        30.08R
CANDO          CLOUDY    52  50  93 N8G15     30.12S
CAVALIER APRT  CLOUDY    52  48  87 NW16      30.06S
GWINNER        CLOUDY    52  50  93 N9        30.04R
SHEYENNE NWR     N/A     53  51  91 N7        29.95S
ROLLA          CLOUDY    48  45  87 NW10      30.12S
 ***** THE ABOVE OBSERVATIONS ARE NON NWS ARE NOT QUALITY
       CONTROLLED AND MAY MIS-REPORT RAIN FOR SNOW...
$$

  *****  WEATHER ACROSS NORTHERN MINNESOTA  *****

CITY           SKY/WX    TMP DP  RH WIND       PRES   REMARKS
FLAG ISLAND    CLOUDY    54  52  94 NW15      29.96F
WARROAD        CLOUDY    54  48  82 NW10      29.99S
ROSEAU         CLOUDY    52  46  82 NW8       30.00R HAZE
HALLOCK          N/A     55  50  82 NW14      30.04R
THF RVR FALLS  CLOUDY    52  48  87 NW9       30.02
BAUDETTE       CLOUDY    54  53  97 W8        29.97S
WASKISH        CLOUDY    55  54  94 NW9       29.98R
CROOKSTON      CLOUDY    55  48  76 N12       30.03F
STEPHEN NDAWN    N/A     54  48  82 NW12        N/A
$$
  *****  WEATHER ACROSS CENTRAL AND WEST MINNESOTA  *****

CITY           SKY/WX    TMP DP  RH WIND       PRES   REMARKS
FOSSTON        CLOUDY    50  48  93 NW10      30.01F FOG
BEMIDJI        CLOUDY    54  52  95 NW8       29.99S
PARK RAPIDS    CLOUDY    56  53  90 W5        29.99R
ELBOW LAKE     CLOUDY    54  54  98 NW10      30.04R
WADENA         CLOUDY    55  55 100 NW6       30.00R
DETROIT LAKES  LGT RAIN  52  50  93 N13       30.01S
MOORHEAD       CLOUDY    54  48  82 N9        30.03S
FERGUS FALLS   DRIZZLE   52  52 100 N7        30.02R
MORRIS MN      NOT AVBL
STAPLES        CLOUDY    59  55  88 NW5       30.00R
$$
  *****  WEATHER ELSEWHERE ACROSS MINNESOTA  *****

CITY           SKY/WX    TMP DP  RH WIND       PRES   REMARKS
DULUTH         FAIR      76  71  85 SW10      29.95S
INTRNTL FALLS  CLOUDY    57  54  89 NW12      29.94R
ELY            FAIR      70  66  88 W7        29.94R
CLOQUET        FAIR      79  66  65 S7        29.95S
WHEATON        LGT RAIN  54  50  87 N6        30.06R
BRAINERD       CLOUDY    65  63  93 W9        29.97R
HIBBING        FAIR      68  66  93 VRB5      29.93S
ALEXANDRIA     CLOUDY    61  58  90 N5        30.02R
SAINT CLOUD    FAIR      78  71  79 S10       29.95R
MINNEAPOLIS    FAIR      81  70  69 S9        29.96F
$$

  *****  WEATHER ACROSS SOUTH DAKOTA  *****

CITY           SKY/WX    TMP DP  RH WIND       PRES   REMARKS
SIOUX FALLS    CLOUDY    69  66  90 SE6       29.97S
BROOKINGS      PTSUNNY   63  57  82 NE8       29.99R
WATERTOWN      CLOUDY    55  55 100 N12       29.99R
HURON          RAIN      54  53  97 N10       30.02R FOG
SISSETON         N/A     55  53  93 N8        30.04R
ABERDEEN       CLOUDY    52  50  93 N9        30.04F
MITCHELL       TSTM      56  55  97 N10       30.00F FOG
PIERRE         CLOUDY    50  48  93 NE10      30.04R
MOBRIDGE       CLOUDY    54  48  80 N14       30.05R
RAPID CITY     CLOUDY    45  43  93 N15       30.08R
$$

  *****  SOME WEATHER IN NEARBY STATES *****

CITY           SKY/WX    TMP DP  RH WIND       PRES   REMARKS
GLASGOW MT     CLOUDY    46  39  76 SE8       30.15R
GREAT FALLS MT FAIR      40  35  83 SE3       30.08S
CHEYENNE WY    CLOUDY    44  37  76 NE7       30.01S
SCOTTSBLUFF NE CLOUDY    45  42  89 N8        30.02S FOG
OMAHA NE       PTSUNNY   83  67  58 S15       29.97S
DES MOINES IA  FAIR      84  69  60 S8        30.03S
DAVENPORT IA   FAIR      85  66  53 S6        30.10S
CHICAGO IL     FAIR      89  65  44 VRB3      30.10S HX  91
EAU CLAIRE WI  FAIR      81  68  64 S12       30.00S
LA CROSSE WI   FAIR      85  68  56 S9        30.03F
$$

  *****  SOME NATIONAL WEATHER *****

CITY           SKY/WX    TMP DP  RH WIND       PRES   REMARKS
LA GUARDIA NY  FAIR      80  57  45 N15G22    30.04F
RALEIGH NC     FAIR      82  63  52 NE8       30.09S
ATLANTA GA     FAIR      83  67  58 VRB3      30.08S
NEW ORLEANS LA FAIR      85  74  69 E7        29.97R HX  92
OKLAHOMA CITY  FAIR      81  68  64 S12       30.00R
ALBUQUERQUE NM PTSUNNY   69  46  43 SW6       29.90S
SALT LAKE CITY PTSUNNY   47  39  74 N5        29.96S
LOS ANGELES CA FAIR      64  54  69 E3        29.86R
BOISE ID       FAIR      45  40  82 W3        30.07R
SEATTLE WA     FAIR      57  49  74 S5        30.10R
$$

*** WEATHER ACROSS MANITOBA...SASKATCHEWAN AND ONTARIO ***
                ***ONTARIO***

CITY           SKY/WX    TMP DP  RH WIND       PRES   REMARKS
GERALDTON      PTSUNNY   70  68  94 SW6       29.86R FOG
THUNDER BAY    PTSUNNY   75  70  83 S3        29.88F
SIOUX LOOKOUT  CLOUDY    57  57 100 W7        29.89R
TORONTO        MOSUNNY   88  57  35 W6        30.13S
BIG TROUT LK   LGT RAIN  48  48 100 NE8       29.98S FOG
PICKLE LAKE    CLOUDY    55  55 100 N6        29.85R FOG
DRYDEN         CLOUDY    55  55 100 W8        29.93R FOG
KENORA         CLOUDY    54  52  94 NW8       29.96R
$$
                *** MANITOBA***

CITY           SKY/WX    TMP DP  RH WIND       PRES   REMARKS
BRANDON        PTSUNNY   50  43  76 N10       30.12R
DAUPHIN        PTSUNNY   50  45  81 NW9       30.13R
ISLAND LAKE    CLOUDY    46  43  87 N9        30.07
PILOT MOUND      N/A     48  45  87 N9          N/A
THE PAS        LGT RAIN  45  43  93 E2        30.11S FOG
THOMPSON       CLOUDY    41  37  87 NE8       30.16S
WINNIPEG       PTSUNNY   52  46  82 N12       30.06R
LYNN LAKE      CLOUDY    37  37 100 E6        30.18S
CHURCHILL      CLOUDY    41  34  75 NE14      30.21S
GILLAM         CLOUDY    39  37  93 N15       30.16R FOG
$$
                ***SASKATCHEWAN***

CITY           SKY/WX    TMP DP  RH WIND       PRES   REMARKS
ESTEVAN        CLOUDY    50  43  76 NW8       30.14S
KINDERSLEY     PTSUNNY   43  39  87 SE7       30.11S
LLOYDMINSTER   PTSUNNY   45  39  81 S5        30.11R
PRINCE ALBERT  PTSUNNY   45  41  87 CALM      30.15R
REGINA         CLOUDY    45  39  81 W3        30.15R
YORKTON        CLOUDY    46  43  87 NW7       30.14R
N. BATTLEFORD  CLOUDY    45  39  81 VRB2      30.15R
LA RONGE       DRIZZLE   45  43  93 S3        30.13R
SASKATOON      CLOUDY    46  41  81 CALM      30.14S
SWIFT CURRENT    N/A     46  34  61 S8        30.11S
$$
NOTE: THESE ARE AUTOMATED STATIONS WITH LIMITED QUALITY CONTROL
      "FAIR" INDICATES FEW OR NO CLOUDS BELOW 12,000 FEET WITH NO
      SIGNIFICANT WEATHER AND/OR OBSTRUCTIONS TO VISIBILITY.
      SKY/WX - SKY CONDITION AND SIGNIFICANT WEATHER.
      TMP - AIR TEMPERATURE.    DP   - DEWPOINT TEMPERATURE.
      RH  - RELATIVE HUMIDITY.  PRES - PRESSURE.
      HX  - HEAT INDEX.         WCI  - WIND CHILL INDEX.
$




USA.gov is the U.S. government's official web portal to all federal, state and local government web resources and services.